Погода в Ломовом

Россия / Липецкая область     53°17′00″N   39°52′09″E
темп.,
°C
ветер,
м/с
пор.,
м/с
влажн.,
%
обл.,
%
осадки,
мм/ч
давл.,
гПа
погр.,
м
8 августа, пн
пн800:00+21св2241100 0.0 101813
03:00+21юв1139100 0.0 101811
06:00+21св1146100 0.0 101911
09:00+23св1245100 0.0 1019177
12:00+28зсз123375 0.0 1020810
15:00+31юв242690 0.0 10192515
18:00+29вюв12365 0.0 101837
21:00+23юв22435 0.0 101912
9 августа, вт
вт900:00+21ююв114735 0.0 101911
03:00+20ю224563 0.0 101916
06:00+20ююз2249100 0.0 101931
09:00+25вюв113838 0.0 1019292
12:00+29з223185 0.0 10181336
15:00+29св1235100 0.0 1017635
18:00+27с4643100 0.0 1017288
21:00+21с51065100 0.0 1018320
10 августа, ср
ср1000:00+19с51280100 0.0 1018378
03:00+19св41175100 0.0 1018342
06:00+17с4790100 0.5 1019201
09:00+19ссв5682100 0.5 1019337
12:00+22ссв566985 0.0 1020645
15:00+22ссв6666100 0.0 1020728
18:00+22ссв5663100 0.0 1020603
21:00+18ссв51178100 0.0 1021423
11 августа, чт
чт1100:00+17ссв4118593 0.0 1022347
03:00+16ссв5116499 0.0 1022365
06:00+14ссв5107062 0.0 1024288
09:00+19св674746 0.0 1024685
12:00+23св56365 0.0 10241238
15:00+25св55340 0.0 10231437
18:00+24св46390 0.0 1023911
21:00+18св47530 0.0 1024107
12 августа, пт
пт1200:00+16всв355947 0.0 102475
03:00+14всв23655 0.0 102524
06:00+15св23675 0.0 102651
09:00+21всв234723 0.0 1026526
12:00+25всв33375 0.0 10251456
15:00+27ссв33335 0.0 10241748
18:00+26ссв23370 0.0 1023382
21:00+20с335217 0.0 102439